Location: Newark
(57.7279°N, 5.6916°W)
Time: 15:35:08
(UTC+00:00)

N. Korean satellite - Pass Details

Date: 16 December 2019
Orbit: 454 x 507 km, 97.2° (Epoch: 28 January)

Event Time Altitude Azimuth Distance (km) Brightness Sun altitude
Rises 17:48:28 0° 188° (S) 2,593 10.6 -15.7°
Reaches altitude 10° 17:50:41 10° 198° (SSW) 1,708 9.8 -16.0°
Maximum altitude 17:54:03 33° 264° (W) 855 8.5 -16.4°
Drops below altitude 10° 17:57:24 10° 330° (NNW) 1,697 9.5 -16.9°
Sets 17:59:37 0° 340° (NNW) 2,575 10.3 -17.1°
